This is the latest recevied weather packets stored in our database for station/object K5NCO. If no packets are shown the sender has not sent any weather packets the latest 10 day(s).
| Time | Temp. | Humidity | Pressure | Rain* | Wind** | Luminosity | Snow |
|---|---|---|---|---|---|---|---|
| 1777474754 | 24.44° C | 98% | 1014.9 hPa | 0 mm | - | 23 W/m² | - |
| 1777474450 | 24.44° C | 98% | 1014.8 hPa | 0 mm | - | 33 W/m² | - |
| 1777474146 | 24.44° C | 98% | 1014.8 hPa | 0 mm | - | 31 W/m² | - |
| 1777473844 | 24.44° C | 98% | 1014.7 hPa | 0 mm | - | 28 W/m² | - |
| 1777473541 | 24.44° C | 98% | 1014.7 hPa | 0 mm | - | 26 W/m² | - |
| 1777473236 | 24.44° C | 98% | 1014.8 hPa | 0 mm | - | 26 W/m² | - |
| 1777472933 | 24.44° C | 98% | 1014.7 hPa | 0 mm | - | 48 W/m² | - |
| 1777472630 | 24.44° C | 98% | 1014.5 hPa | 0 mm | - | 52 W/m² | - |
| 1777472326 | 24.44° C | 98% | 1014.5 hPa | 0 mm | - | 58 W/m² | - |
| 1777472024 | 24.44° C | 97% | 1014.5 hPa | 0 mm | - | 52 W/m² | - |
| 1777471719 | 24.44° C | 97% | 1014.4 hPa | 0 mm | - | 34 W/m² | - |
| 1777471416 | 24.44° C | 97% | 1014.5 hPa | 0 mm | - | 22 W/m² | - |
| 1777471108 | 24.44° C | 96% | 1014.3 hPa | 0 mm | - | 18 W/m² | - |
| 1777470804 | 24.44° C | 95% | 1014.3 hPa | 0 mm | - | 19 W/m² | - |
| 1777470502 | 24.44° C | 95% | 1014.6 hPa | 0 mm | - | 16 W/m² | - |
| 1777470197 | 24.44° C | 95% | 1014.4 hPa | 0 mm | - | 15 W/m² | - |
| 1777469894 | 24.44° C | 94% | 1014.3 hPa | 0 mm | - | 12 W/m² | - |
| 1777469589 | 25° C | 94% | 1014.1 hPa | 0 mm | - | 10 W/m² | - |
| 1777469289 | 25° C | 94% | 1014.1 hPa | 0 mm | - | 15 W/m² | - |
| 1777468985 | 25° C | 94% | 1013.9 hPa | 0 mm | - | 19 W/m² | - |
| 1777468680 | 25° C | 94% | 1013.9 hPa | 0 mm | - | 17 W/m² | - |
| 1777468377 | 25° C | 94% | 1013.8 hPa | 0 mm | - | 16 W/m² | - |
| 1777468073 | 25° C | 94% | 1013.8 hPa | 0 mm | - | 19 W/m² | - |
| 1777467770 | 25° C | 94% | 1013.6 hPa | 0 mm | - | 18 W/m² | - |
| 1777467470 | 25° C | 94% | 1013.6 hPa | 0 mm | - | 16 W/m² | - |
* Rain latest hour (hover to see other rain measurements)
** Current wind speed in m/s (hover to see current wind gust speed)